CZ-6A DEB, 56652

Orbit data source: Space-Track

CZ-6A DEB, 56652 is space debris in SSO originally from a launch on Fri, 11 Nov 2022 UTC launched from the Taiyaun Space Center, China (TSC). Debris objects in space refer to the collection of defunct objects orbiting the Earth. Examples of debris include non-operational satellites, rocket bodies, and fragments generated from explosions, collisions, or faulty payload assembly.

Loading next visibility...
Identifier
56652, 2022-151AGC
Orbit
SSO
Country
Flag of CNCN / PRC
Related business
Manufacturer
SAST
Mission
Spacecraft
Bus & Motor
Unknown
Mass
Unknown
Launch date (UTC)
2022-11-11 (3 years ago)
Launch vehicle
Unknown
Launch site
Taiyaun Space Center, China (TSC)
Object type
Payload
Rocket body
Debris
Shape & HBR
Unknown shape, 0.1 m
Radar Cross Section
Small (<0.1 m²)

Expand to show TLE details & history
Last TLE update: 1 day ago

TLE from 1 day ago
0 CZ-6A DEB
1 56652U 22151AGC 25349.50134838  .00002800  00000-0  11805-2 0  9997
2 56652  98.8219   0.2897 0078259 155.6531 204.8376 14.24840769145315
Epoch: 2025-12-15T12:01Z
TLE epoch observation values (Epoch: 2025-12-15T12:01:56.500Z)
Latitude
-0.00006°
Longitude
95.40529°
Altitude
863.076 km
Speed
7.395 km/s
True Right ascension
00h 01m 09s
True Declination
0° 00' 00"
Sunlit
Object was in daylight at epoch
Visualization orbit readout
Latitude
Unknown
Longitude
Unknown
Altitude
Unknown
Speed
Unknown
Apparent Right ascension
Unknown
Apparent Declination
Unknown
Sunlit
N/A
Visualization observer readout
Local Sidereal Time
21:33:45
Azimuth
Unknown
Elevation
Unknown
Doppler factor
Unknown
Orbital elements
Apogee altitude
862.409 km
Perigee altitude
749.962 km
Semi-major axis
7,184.322 km
Eccentricity
0.00783
Inclination
98.8219°
RAAN
0.2897°
Arg. of periapsis
155.6531°
True anomaly
204.46423°
Mean anomaly
204.8376°
Eccentric anomaly
204.65058°
Mean motion
3.56422 °/min
Orbital period
101 mins
BSTAR
0.0011805
Loading maneuver chart data...
Computing Atmospheric mass density...
Loading historical data...
Loading historical data...
Loading historical data...
Loading historical data...
Loading historical data...
Loading historical data...
Loading historical data...

Documentation

Showing up to 5 results
|